FIN78Y ENGM-EFHK

Flight info

Callsign FIN78Y
Flight time N/A
Altitude 39000
Route MASEV DCT OTKIL Y368 LAKUT
Aircraft A20N/M-SDE2E3FGHIRWXY/LB1

Departure

Time N/A
Airport Oslo-Gardermoen International Airport (ENGM)

Arrival

Time 2026-04-22 13:34
Airport Helsinki Vantaa Airport (EFHK)
Time Latitude Longitude Altitude Speed Heading
2026-04-22 13:01 60.44133 19.68427 39013 ft 398 kts 79°
2026-04-22 13:02 60.44424 19.79580 39003 ft 399 kts 79°
2026-04-22 13:02 60.44705 19.90768 39012 ft 398 kts 79°
2026-04-22 13:03 60.44975 20.01969 39001 ft 398 kts 79°
2026-04-22 13:03 60.45240 20.13252 39005 ft 398 kts 79°
2026-04-22 13:04 60.45495 20.24460 38994 ft 400 kts 79°
2026-04-22 13:04 60.45735 20.35599 38987 ft 400 kts 79°
2026-04-22 13:05 60.45970 20.46870 38980 ft 400 kts 78°
2026-04-22 13:05 60.46196 20.58081 38985 ft 401 kts 78°
2026-04-22 13:06 60.46410 20.69332 38972 ft 401 kts 79°
2026-04-22 13:06 60.46617 20.80566 38972 ft 402 kts 79°
2026-04-22 13:07 60.46813 20.91787 38791 ft 402 kts 80°
2026-04-22 13:07 60.46910 20.97437 38445 ft 401 kts 78°
2026-04-22 13:07 60.46999 21.03079 38101 ft 398 kts 79°
2026-04-22 13:07 60.47086 21.08643 37763 ft 395 kts 79°
2026-04-22 13:08 60.47173 21.14131 37418 ft 394 kts 78°
2026-04-22 13:08 60.47257 21.19644 37104 ft 394 kts 79°
2026-04-22 13:08 60.47339 21.25210 36768 ft 395 kts 78°
2026-04-22 13:08 60.47418 21.30753 36465 ft 395 kts 79°
2026-04-22 13:09 60.47489 21.36286 36205 ft 396 kts 79°
2026-04-22 13:09 60.47477 21.41847 35942 ft 399 kts 80°
2026-04-22 13:09 60.47448 21.47405 35699 ft 399 kts 81°
2026-04-22 13:09 60.47413 21.52996 35454 ft 399 kts 80°
2026-04-22 13:10 60.47374 21.58647 35200 ft 399 kts 81°
2026-04-22 13:10 60.47332 21.64245 34946 ft 399 kts 80°
2026-04-22 13:10 60.47289 21.69841 34700 ft 401 kts 81°
2026-04-22 13:10 60.47243 21.75491 34438 ft 402 kts 81°
2026-04-22 13:11 60.47196 21.81133 34188 ft 402 kts 81°
2026-04-22 13:11 60.47146 21.86702 33919 ft 403 kts 81°
2026-04-22 13:11 60.47092 21.92410 33661 ft 404 kts 81°
2026-04-22 13:11 60.47039 21.98033 33376 ft 405 kts 81°
2026-04-22 13:12 60.46983 22.03759 32927 ft 408 kts 81°
2026-04-22 13:12 60.46923 22.09522 32343 ft 409 kts 81°
2026-04-22 13:12 60.46859 22.15221 31760 ft 409 kts 81°
2026-04-22 13:12 60.46789 22.20965 31282 ft 405 kts 81°
2026-04-22 13:13 60.46717 22.26605 30807 ft 402 kts 81°
2026-04-22 13:13 60.46648 22.32221 30335 ft 399 kts 81°
2026-04-22 13:13 60.46575 22.37735 29872 ft 396 kts 81°
2026-04-22 13:13 60.46503 22.43263 29427 ft 393 kts 81°
2026-04-22 13:14 60.46429 22.48785 28922 ft 391 kts 81°
2026-04-22 13:14 60.46352 22.54206 28472 ft 388 kts 81°
2026-04-22 13:14 60.46276 22.59665 27994 ft 386 kts 81°
2026-04-22 13:14 60.46198 22.65048 27512 ft 384 kts 81°
2026-04-22 13:15 60.46116 22.70435 26983 ft 384 kts 81°
2026-04-22 13:15 60.46034 22.75849 26473 ft 383 kts 81°
2026-04-22 13:15 60.45951 22.81196 26011 ft 381 kts 82°
2026-04-22 13:15 60.45861 22.86480 25556 ft 380 kts 81°
2026-04-22 13:16 60.45771 22.91787 25105 ft 377 kts 81°
2026-04-22 13:16 60.45678 22.97060 24673 ft 375 kts 81°
2026-04-22 13:16 60.45586 23.02310 24192 ft 375 kts 81°
2026-04-22 13:16 60.45494 23.07637 23719 ft 374 kts 81°
2026-04-22 13:17 60.45396 23.12872 23267 ft 373 kts 81°
2026-04-22 13:17 60.45297 23.18078 22781 ft 373 kts 81°
2026-04-22 13:17 60.45203 23.23267 22321 ft 373 kts 81°
2026-04-22 13:17 60.45103 23.28545 21836 ft 372 kts 81°
2026-04-22 13:18 60.44999 23.33696 21385 ft 371 kts 81°
2026-04-22 13:18 60.44894 23.38971 20908 ft 371 kts 82°
2026-04-22 13:18 60.44787 23.44184 20442 ft 370 kts 82°
2026-04-22 13:18 60.44677 23.49341 19997 ft 368 kts 82°
2026-04-22 13:19 60.44566 23.54464 19555 ft 366 kts 81°
2026-04-22 13:19 60.44453 23.59694 19106 ft 365 kts 81°
2026-04-22 13:19 60.44339 23.64781 18663 ft 364 kts 82°
2026-04-22 13:19 60.44225 23.69961 18189 ft 364 kts 83°
2026-04-22 13:20 60.44107 23.75061 17726 ft 365 kts 82°
2026-04-22 13:20 60.43989 23.80115 17296 ft 364 kts 83°
2026-04-22 13:20 60.43899 23.85188 16865 ft 360 kts 80°
2026-04-22 13:20 60.43975 23.90185 16418 ft 354 kts 76°
2026-04-22 13:21 60.44221 23.95083 15988 ft 350 kts 73°
2026-04-22 13:21 60.44505 23.99900 15693 ft 344 kts 73°
2026-04-22 13:21 60.44785 24.04648 15468 ft 335 kts 72°
2026-04-22 13:21 60.45054 24.09264 15142 ft 331 kts 73°
2026-04-22 13:22 60.45319 24.13862 14824 ft 327 kts 73°
2026-04-22 13:22 60.45581 24.18416 14379 ft 326 kts 73°
2026-04-22 13:22 60.45834 24.22909 14012 ft 325 kts 73°
2026-04-22 13:22 60.46065 24.27436 13705 ft 321 kts 75°
2026-04-22 13:23 60.46243 24.31889 13362 ft 318 kts 75°
2026-04-22 13:23 60.46411 24.36352 12999 ft 315 kts 76°
2026-04-22 13:23 60.46577 24.40710 12615 ft 314 kts 76°
2026-04-22 13:23 60.46748 24.45133 12217 ft 313 kts 76°
2026-04-22 13:24 60.46912 24.49447 11848 ft 310 kts 76°
2026-04-22 13:24 60.47076 24.53802 11482 ft 308 kts 76°
2026-04-22 13:24 60.47236 24.58093 11114 ft 307 kts 78°
2026-04-22 13:24 60.47223 24.62435 10739 ft 311 kts 86°
2026-04-22 13:25 60.46934 24.66745 10369 ft 313 kts 92°
2026-04-22 13:25 60.46547 24.71056 9991 ft 310 kts 94°
2026-04-22 13:25 60.46151 24.75277 9502 ft 308 kts 94°
2026-04-22 13:25 60.45756 24.79522 8995 ft 305 kts 94°
2026-04-22 13:26 60.45372 24.83726 8504 ft 302 kts 94°
2026-04-22 13:26 60.44997 24.87872 7999 ft 299 kts 94°
2026-04-22 13:26 60.44679 24.91974 7483 ft 292 kts 85°
2026-04-22 13:26 60.45074 24.95779 6940 ft 270 kts 52°
2026-04-22 13:27 60.46233 24.98534 6464 ft 255 kts 38°
2026-04-22 13:27 60.47478 25.01069 6005 ft 252 kts 39°
2026-04-22 13:27 60.48655 25.03567 5653 ft 245 kts 40°
2026-04-22 13:27 60.49805 25.06065 5276 ft 240 kts 40°
2026-04-22 13:28 60.50917 25.08515 4953 ft 232 kts 40°
2026-04-22 13:28 60.51942 25.10994 4665 ft 230 kts 52°
2026-04-22 13:28 60.52314 25.14174 4258 ft 247 kts 89°
2026-04-22 13:28 60.51685 25.17452 3914 ft 256 kts 126°
2026-04-22 13:29 60.50417 25.19904 3665 ft 252 kts 137°
2026-04-22 13:29 60.49084 25.22195 3399 ft 247 kts 137°
2026-04-22 13:29 60.47788 25.24423 3130 ft 246 kts 141°
2026-04-22 13:29 60.46219 25.25769 2967 ft 243 kts 181°
2026-04-22 13:30 60.44733 25.24967 2964 ft 211 kts 227°
2026-04-22 13:30 60.43812 25.22823 3007 ft 199 kts 244°
2026-04-22 13:30 60.43037 25.20540 3004 ft 200 kts 242°
2026-04-22 13:30 60.42182 25.18263 2852 ft 201 kts 240°
2026-04-22 13:31 60.41309 25.16090 2585 ft 202 kts 237°
2026-04-22 13:31 60.40382 25.13974 2368 ft 195 kts 236°
2026-04-22 13:31 60.39491 25.12038 2109 ft 182 kts 236°
2026-04-22 13:31 60.38664 25.10245 1829 ft 168 kts 237°
2026-04-22 13:32 60.37908 25.08595 1604 ft 155 kts 237°
2026-04-22 13:32 60.37191 25.07009 1397 ft 153 kts 237°
2026-04-22 13:32 60.36483 25.05441 1211 ft 150 kts 236°
2026-04-22 13:32 60.35815 25.03980 998 ft 136 kts 236°
2026-04-22 13:33 60.35192 25.02611 821 ft 130 kts 236°
2026-04-22 13:33 60.34582 25.01260 656 ft 129 kts 236°
2026-04-22 13:33 60.33982 24.99937 492 ft 129 kts 235°
2026-04-22 13:33 60.33373 24.98597 315 ft 127 kts 234°
2026-04-22 13:34 60.32784 24.97300 197 ft 121 kts 233°
2026-04-22 13:34 60.32303 24.96191 188 ft 83 kts 225°
2026-04-22 13:34 60.32021 24.95596 188 ft 33 kts 224°
2026-04-22 13:34 60.31919 24.95417 188 ft 16 kts 219°
2026-04-22 13:35 60.31823 24.95288 188 ft 16 kts 201°
2026-04-22 13:35 60.31716 24.95212 188 ft 16 kts 201°
2026-04-22 13:35 60.31633 24.95280 188 ft 15 kts 88°
2026-04-22 13:35 60.31697 24.95455 188 ft 15 kts 46°
2026-04-22 13:36 60.31772 24.95618 188 ft 15 kts 47°
2026-04-22 13:36 60.31847 24.95782 188 ft 15 kts 47°
2026-04-22 13:36 60.31922 24.95946 188 ft 15 kts 45°
2026-04-22 13:36 60.31997 24.96108 188 ft 15 kts 46°
2026-04-22 13:37 60.32071 24.96272 188 ft 16 kts 46°
2026-04-22 13:37 60.32148 24.96441 188 ft 16 kts 49°
2026-04-22 13:37 60.32224 24.96610 188 ft 13 kts 47°
2026-04-22 13:37 60.32225 24.96758 188 ft 13 kts 144°
2026-04-22 13:38 60.32132 24.96866 188 ft 17 kts 150°
2026-04-22 13:38 60.31936 24.97079 188 ft 8 kts 153°
2026-04-22 13:38 60.31895 24.97091 188 ft 5 kts 210°
2026-04-22 13:39 60.31872 24.97035 188 ft 3 kts 241°
2026-04-22 13:39 60.31863 24.97001 188 ft 2 kts 241°
2026-04-22 13:39 60.31862 24.96996 188 ft 0 kts 244°